Regional Weather Roundup
Issued by NWS

Home | Current Version | Previous Version | Graphics & Text | Print | Product List | Glossary On
Versions: 1 2 3 4 5 6 7 8 9 10 11 12 13 14 15 16 17 18 19 20 21 22 23 24 25 26 27 28 29 30 31 32 33 34 35 36 37 38 39 40 41 42 43 44 45 46 47 48 49 50
000
ASUS45 KSLC 041210
RWRUT

UTAH REGIONAL WEATHER ROUNDUP
NATIONAL WEATHER SERVICE SALT LAKE CITY UT
600 AM MDT SAT JUL 04 2015

UTZ001>011-023>025-041300-

NORTHERN UTAH

CITY           SKY/WX    TMP DP  RH WIND       PRES   REMARKS
BRIGHAM CITY   CLOUDY    75  49  40 CALM      29.93R
HILL AFB       LGT RAIN  73  48  40 E18       29.96R
LOGAN          CLEAR     67  54  63 CALM      29.95S
OGDEN          CLOUDY    75  46  35 S8        29.93R
PROVO AIRPORT  CLOUDY    68  46  45 SE6       29.97R
SALT LAKE CITY CLOUDY    79  52  38 S6        29.91R
VERNAL         PTCLDY    67  46  47 NW5       30.04R
WENDOVER       PTCLDY    77  45  31 S9        29.93S
HEBER CITY     MOCLDY    59  50  72 SE8       30.07S
WEST JORDAN    CLEAR     75  45  33 CALM      29.96R

$$

UTZ012>022-026-027-041300-

SOUTHERN/CENTRAL UTAH

CITY           SKY/WX    TMP DP  RH WIND       PRES   REMARKS
BLANDING       CLOUDY    65  52  61 CALM      30.23S
BRYCE CANYON   MOCLDY    57  50  77 W5        30.27S
CEDAR CITY     CLOUDY    73  47  39 S3        30.08S
DELTA          PTCLDY    77  42  28 S12       29.97S
HANKSVILLE     PTCLDY    72  48  43 CALM      30.01S
MILFORD        CLOUDY    78  48  34 S13       30.00S
MOAB/CYNLANDS  CLEAR     74  55  51 SE12      30.02R
PRICE          CLEAR     73  45  36 E9        30.11R
ST GEORGE      PTSUNNY   84  54  34 E8        29.90S
KANAB          CLOUDY    72  59  64 NW6       30.13R

$$

REGIONAL REPORTS     COLORADO/ARIZONA

CITY           SKY/WX    TMP DP  RH WIND       PRES   REMARKS
CRAIG, CO      PTCLDY    54  47  77 CALM      30.13R
GRAND JUNCTION CLOUDY    73  50  44 E16       30.05R
RIFLE          MOCLDY    61  55  81 CALM      30.13R
MONTROSE       CLOUDY    65  48  54 E5        30.19R
CORTEZ         CLEAR     58  50  75 NE6       30.19R
PAGE, AZ       MOCLDY    78  55  44 S5        30.00F
GRAND CANYON   CLOUDY    61  57  87 CALM      30.19F
KINGMAN        CLOUDY    81  52  36 S7        29.94S
FLAGSTAFF      CLOUDY    58  55  90 E8        30.22R

$$

REGIONAL REPORTS    NEVADA/IDAHO/WYOMING

CITY           SKY/WX    TMP DP  RH WIND       PRES   REMARKS
LAS VEGAS, NV  CLOUDY    94  34  12 S8        29.76R
ELY            CLOUDY    59  48  67 S10       30.12S
ELKO           CLEAR     61  49  64 E5        30.04S
POCATELLO, ID  CLEAR     65  46  50 SW6       29.95R
BURLEY         MOCLDY    64  50  60 W6        29.92R
EVANSTON, WY   MOCLDY    63  41  44 S6        30.16S
ROCK SPRINGS   CLEAR     65  41  41 W6        30.13R
KEMMERER       PTCLDY    59  43  55 NW8       30.17S

$$



USA.gov is the U.S. government's official web portal to all federal, state and local government web resources and services.